Notices

What's New in latest Release from April 7th, 2021:

- Updated Glossary, including Speed of Maximum Gust, and Total Hourly Precipitation

- Updated national and regional climate services offices contacts and prices information

- Addition of station inventory lists for 1981-2010, 1971-2000, and 1961-1990 Normals.

If you haven't already, please take our survey and provide feedback about our website: https://eccc.sondage-survey.ca/f/LanguageSelection.aspx?s=442ca660-fcf1-47c0-95a9-59707d6fd709

Hourly Data Report for July 09, 2019

TORONTO CITY
ONTARIO
Current Station Operator: ECCC - MSC

43°40'00.000" N
79°24'00.000" W
112.50 m
6158355
71508
XTO

Download Data

Hourly Data (July 2019)
Hourly Data Report for July 9, 2019
TIME
LST
Temp Definition
°C
Dew Point Definition
°C
Rel Hum Definition
%
Precip. Amount Definition
mm

Wind Dir Definition
10's deg

Wind Spd Definition
km/h
Visibility Definition
km
Stn Press Definition
kPa
Hmdx Definition


Wind Chill Definition


Weather Definition


00:00 18.9 7.4 47 0.0       100.38     LegendNANA
01:00 18.6 8.4 51 0.0       100.43     LegendNANA
02:00 18.1 9.1 55 0.0       100.42     LegendNANA
03:00 17.3 8.7 57 0.0       100.45     LegendNANA
04:00 16.2 9.0 62 0.0       100.49     LegendNANA
05:00 16.4 8.4 59 0.0       100.53     LegendNANA
06:00 17.1 9.4 60 0.0       100.58     LegendNANA
07:00 19.6 9.7 53 0.0       100.58     LegendNANA
08:00 22.1 7.1 38 0.0       100.59     LegendNANA
09:00 23.8 7.1 34 0.0       100.55     LegendNANA
10:00 24.7 7.8 34 0.0       100.57 25   LegendNANA
11:00 25.0 7.6 33 0.0       100.55 25   LegendNANA
12:00 25.3 7.3 32 0.0       100.54 25   LegendNANA
13:00 26.4 9.8 35 0.0       100.50 28   LegendNANA
14:00 26.3 7.7 31 0.0       100.46 27   LegendNANA
15:00 26.8 7.7 30 0.0       100.41 27   LegendNANA
16:00 26.1 7.6 31 0.0       100.40 26   LegendNANA
17:00 26.1 6.0 28 0.0       100.36 26   LegendNANA
18:00 25.9 6.0 28 0.0       100.35 26   LegendNANA
19:00 24.9 2.0 22 0.0       100.34     LegendNANA
20:00 22.8 6.8 36 0.0       100.33     LegendNANA
21:00 20.8 6.5 39 0.0       100.35     LegendNANA
22:00 20.4 7.0 42 0.0       100.34     LegendNANA
23:00 19.7 8.6 49 0.0       100.34     LegendNANA

Notes on Data Quality.

Legend

  • E = Estimated
  • M = Missing
  • NA = Not Available*
  • [empty] = Indicates an unobserved value
Date modified: